TIANTONG-1 2 (46916 NORAD) Tracking and Keplerian Element Data

This shows tracking and keplerian element data for the satellite.

Feedback or suggestion? Click here.




ElementValue
Catalog46916
NameTIANTONG-1 2
Epoch Orbit83
Epoch Day17.77715484
Epoch Year2021
RAAN299.7581
Inclination5.3415
Eccentricity0.000139
Argument of Perigee9.2973
Mean Anonmoly213.0246
Mean Motion1.0026861
Decay Rate-3.54E-06
L11 46916U 20082A 21017.77715484 -.00000354 00000-0 00000-0 0 9995
L22 46916 5.3415 299.7581 0001390 9.2973 213.0246 1.00268610 833

Live tracking and technical data element details for TIANTONG-1 2 (NORAD 46916). TIANTONG-1 2 can be tracked NOW for your location showing map with azimuth and elevation plus other details from your city location.

Track the satellite on the map from your city or location and see movement details for azimuth, elevation, latitude, longitude, range, height, and movement on the map or in text.







IsCatalogInMostPopularTable: catalog: 46916, numindb: 23
Update: records affected: 1



GetName: 46916 TIANTONG-1 2

Hit Count: updated at: Mon, 18 Jan 2021 17:07:02 GMT